When you browse on this site, cookies collect data to enhance your experience and personalize the content and advertising you see.
Visit our Privacy Policy to learn more. By continuing to use the site, you agree to this use of cookies and data.
  • In Spain
  • List of Countries
  • For 7 days
  • Water Temperature
  • Satellite Maps
  • Weather Map
  • Weather Widgets
  • user-avatar
    Login

    Hourly Weather Dejr az-Zaur

    Today, 22 April, Monday

    Time Temperature Precipitation Wind Pressure Humidity
    00:00 +10°C° 0.1 mm 8 mps 736 mmHg 66%
    01:00 +10°C° 0.1 mm 9 mps 736 mmHg 64%
    02:00 +9°C° 0.1 mm 10 mps 737 mmHg 62%
    03:00 +9°C° 0 mm 11 mps 736 mmHg 59%
    04:00 +9°C° 0 mm 11 mps 736 mmHg 57%
    05:00 +9°C° 0 mm 11 mps 736 mmHg 55%
    06:00 +9°C° 0 mm 10 mps 737 mmHg 52%
    07:00 +11°C° 0 mm 10 mps 737 mmHg 50%
    08:00 +12°C° 0 mm 10 mps 738 mmHg 47%
    09:00 +13°C° 0 mm 9 mps 737 mmHg 44%
    10:00 +15°C° 0 mm 9 mps 738 mmHg 40%
    11:00 +16°C° 0 mm 9 mps 738 mmHg 37%
    12:00 +18°C° 0 mm 8 mps 739 mmHg 33%
    13:00 +18°C° 0 mm 8 mps 739 mmHg 31%
    14:00 +20°C° 0 mm 8 mps 739 mmHg 29%
    15:00 +20°C° 0 mm 8 mps 739 mmHg 27%
    16:00 +20°C° 0 mm 8 mps 739 mmHg 27%
    17:00 +20°C° 0 mm 8 mps 739 mmHg 27%
    18:00 +20°C° 0 mm 7 mps 740 mmHg 27%
    19:00 +18°C° 0 mm 7 mps 740 mmHg 30%
    20:00 +17°C° 0 mm 6 mps 741 mmHg 33%
    21:00 +17°C° 0 mm 5 mps 741 mmHg 36%
    22:00 +16°C° 0 mm 6 mps 742 mmHg 39%
    23:00 +15°C° 0 mm 8 mps 742 mmHg 42%

    Tomorrow, 23 April, Tuesday

    Time Temperature Precipitation Wind Pressure Humidity
    00:00 +15°C° 0 mm 9 mps 743 mmHg 45%
    01:00 +13°C° 0 mm 9 mps 743 mmHg 47%
    02:00 +13°C° 0 mm 9 mps 743 mmHg 49%
    03:00 +12°C° 0 mm 9 mps 743 mmHg 50%
    04:00 +12°C° 0 mm 9 mps 744 mmHg 51%
    05:00 +12°C° 0 mm 8 mps 744 mmHg 53%
    06:00 +11°C° 0 mm 8 mps 744 mmHg 54%
    07:00 +13°C° 0 mm 8 mps 745 mmHg 50%
    08:00 +15°C° 0 mm 7 mps 746 mmHg 47%
    09:00 +16°C° 0 mm 7 mps 746 mmHg 43%
    10:00 +17°C° 0 mm 6 mps 746 mmHg 40%
    11:00 +19°C° 0 mm 5 mps 747 mmHg 37%
    12:00 +20°C° 0 mm 5 mps 747 mmHg 34%
    13:00 +21°C° 0 mm 5 mps 747 mmHg 32%
    14:00 +22°C° 0 mm 4 mps 747 mmHg 30%
    15:00 +22°C° 0 mm 4 mps 747 mmHg 28%
    16:00 +22°C° 0 mm 4 mps 747 mmHg 27%
    17:00 +22°C° 0 mm 4 mps 747 mmHg 27%
    18:00 +22°C° 0 mm 4 mps 747 mmHg 27%
    19:00 +22°C° 0 mm 3 mps 747 mmHg 29%
    20:00 +21°C° 0 mm 3 mps 747 mmHg 32%
    21:00 +20°C° 0 mm 2 mps 748 mmHg 34%
    22:00 +20°C° 0 mm 2 mps 748 mmHg 36%
    23:00 +19°C° 0 mm 2 mps 748 mmHg 38%

    Day after tomorrow, 24 April, Wednesday

    Time Temperature Precipitation Wind Pressure Humidity
    00:00 +19°C° 0 mm 2 mps 748 mmHg 40%
    01:00 +18°C° 0 mm 3 mps 748 mmHg 41%
    02:00 +18°C° 0 mm 3 mps 748 mmHg 41%
    03:00 +18°C° 0 mm 4 mps 748 mmHg 41%
    04:00 +17°C° 0 mm 4 mps 748 mmHg 43%
    05:00 +17°C° 0 mm 4 mps 748 mmHg 44%
    06:00 +15°C° 0 mm 5 mps 748 mmHg 46%
    07:00 +16°C° 0 mm 5 mps 749 mmHg 42%
    08:00 +19°C° 0 mm 5 mps 749 mmHg 37%
    09:00 +20°C° 0 mm 5 mps 749 mmHg 33%
    10:00 +21°C° 0 mm 5 mps 749 mmHg 29%
    11:00 +22°C° 0 mm 5 mps 749 mmHg 25%
    12:00 +25°C° 0 mm 5 mps 749 mmHg 21%
    13:00 +25°C° 0 mm 5 mps 749 mmHg 20%
    14:00 +26°C° 0 mm 5 mps 748 mmHg 19%
    15:00 +26°C° 0 mm 6 mps 748 mmHg 17%
    16:00 +26°C° 0 mm 5 mps 748 mmHg 18%
    17:00 +26°C° 0 mm 5 mps 747 mmHg 18%
    18:00 +25°C° 0 mm 5 mps 747 mmHg 18%
    19:00 +25°C° 0 mm 4 mps 747 mmHg 20%
    20:00 +24°C° 0 mm 3 mps 747 mmHg 22%
    21:00 +22°C° 0 mm 3 mps 747 mmHg 25%
    22:00 +22°C° 0 mm 3 mps 747 mmHg 26%
    23:00 +21°C° 0 mm 3 mps 747 mmHg 27%

    25 April, Thursday

    Time Temperature Precipitation Wind Pressure Humidity
    00:00 +20°C° 0 mm 3 mps 747 mmHg 28%
    01:00 +20°C° 0 mm 3 mps 746 mmHg 29%
    02:00 +20°C° 0 mm 3 mps 746 mmHg 30%
    03:00 +19°C° 0 mm 3 mps 746 mmHg 31%
    04:00 +19°C° 0 mm 3 mps 746 mmHg 32%
    05:00 +19°C° 0 mm 3 mps 746 mmHg 34%
    06:00 +18°C° 0 mm 3 mps 746 mmHg 35%
    07:00 +20°C° 0 mm 4 mps 746 mmHg 33%
    08:00 +21°C° 0 mm 4 mps 746 mmHg 31%
    09:00 +23°C° 0 mm 5 mps 746 mmHg 29%
    10:00 +24°C° 0 mm 6 mps 746 mmHg 27%
    11:00 +26°C° 0 mm 6 mps 746 mmHg 26%
    12:00 +27°C° 0 mm 7 mps 746 mmHg 24%
    13:00 +27°C° 0 mm 7 mps 745 mmHg 23%
    14:00 +28°C° 0 mm 7 mps 745 mmHg 23%
    15:00 +28°C° 0 mm 7 mps 744 mmHg 22%
    16:00 +28°C° 0 mm 6 mps 744 mmHg 22%
    17:00 +27°C° 0 mm 6 mps 744 mmHg 22%
    18:00 +27°C° 0 mm 5 mps 744 mmHg 22%
    19:00 +26°C° 0 mm 4 mps 744 mmHg 24%
    20:00 +25°C° 0 mm 4 mps 744 mmHg 26%
    21:00 +24°C° 0 mm 3 mps 745 mmHg 28%
    22:00 +24°C° 0 mm 2 mps 745 mmHg 30%
    23:00 +23°C° 0 mm 2 mps 744 mmHg 32%

    26 April, Friday

    Time Temperature Precipitation Wind Pressure Humidity
    00:00 +23°C° 0 mm 2 mps 744 mmHg 33%
    01:00 +21°C° 0 mm 2 mps 744 mmHg 34%
    02:00 +21°C° 0 mm 2 mps 744 mmHg 35%
    03:00 +20°C° 0 mm 2 mps 743 mmHg 35%
    04:00 +20°C° 0 mm 2 mps 744 mmHg 35%
    05:00 +19°C° 0 mm 2 mps 744 mmHg 36%
    06:00 +19°C° 0 mm 2 mps 744 mmHg 36%
    07:00 +20°C° 0 mm 2 mps 744 mmHg 33%
    08:00 +21°C° 0 mm 2 mps 744 mmHg 30%
    09:00 +24°C° 0 mm 2 mps 745 mmHg 27%
    10:00 +25°C° 0 mm 1 mps 744 mmHg 24%
    11:00 +26°C° 0 mm 1 mps 744 mmHg 21%
    12:00 +25°C° 0 mm 0 mps 744 mmHg 19%
    13:00 +25°C° 0 mm 0 mps 744 mmHg 18%
    14:00 +26°C° 0 mm 0 mps 743 mmHg 18%
    15:00 +26°C° 0 mm 0 mps 743 mmHg 18%
    16:00 +26°C° 0 mm 0 mps 743 mmHg 18%
    17:00 +28°C° 0 mm 1 mps 743 mmHg 18%
    18:00 +29°C° 0 mm 1 mps 742 mmHg 18%
    19:00 +28°C° 0 mm 2 mps 743 mmHg 20%
    20:00 +27°C° 0 mm 2 mps 743 mmHg 21%
    21:00 +27°C° 0 mm 3 mps 743 mmHg 22%
    22:00 +26°C° 0 mm 3 mps 743 mmHg 23%
    23:00 +26°C° 0 mm 4 mps 743 mmHg 24%

    27 April, Saturday

    Time Temperature Precipitation Wind Pressure Humidity
    00:00 +25°C° 0 mm 4 mps 742 mmHg 26%
    01:00 +24°C° 0 mm 3 mps 742 mmHg 27%
    02:00 +24°C° 0 mm 3 mps 742 mmHg 28%
    03:00 +22°C° 0 mm 3 mps 742 mmHg 29%
    04:00 +23°C° 0 mm 2 mps 742 mmHg 29%
    05:00 +23°C° 0 mm 2 mps 742 mmHg 30%
    06:00 +21°C° 0 mm 2 mps 743 mmHg 30%
    07:00 +23°C° 0.1 mm 2 mps 743 mmHg 32%
    08:00 +22°C° 0.1 mm 3 mps 744 mmHg 34%
    09:00 +22°C° 0.1 mm 4 mps 744 mmHg 36%
    10:00 +22°C° 0.3 mm 3 mps 744 mmHg 41%
    11:00 +21°C° 0.3 mm 3 mps 744 mmHg 46%
    12:00 +21°C° 0.3 mm 3 mps 744 mmHg 51%
    13:00 +21°C° 0.2 mm 3 mps 744 mmHg 51%
    14:00 +21°C° 0.2 mm 3 mps 743 mmHg 50%
    15:00 +21°C° 0.2 mm 3 mps 743 mmHg 50%
    16:00 +21°C° 0.1 mm 3 mps 743 mmHg 50%
    17:00 +21°C° 0.1 mm 4 mps 743 mmHg 51%
    18:00 +21°C° 0.1 mm 5 mps 743 mmHg 51%
    19:00 +21°C° 0 mm 4 mps 743 mmHg 51%
    20:00 +21°C° 0 mm 4 mps 743 mmHg 51%
    21:00 +21°C° 0 mm 3 mps 743 mmHg 51%
    22:00 +20°C° 0 mm 3 mps 743 mmHg 51%
    23:00 +20°C° 0 mm 2 mps 743 mmHg 51%
    Show more